Overview Statistics Trail Chart Weather Telemetry Raw packets
 

This is the latest recevied weather packets stored in our database for station/object NB9X. If no packets are shown the sender has not sent any weather packets the latest 10 day(s).

<< 82 83 84 85 86 87 88 >>
Time Temp. Humidity Pressure Rain* Wind** Luminosity Snow
1788052472 24.44° C 100% 1015.4 hPa 0 mm - - -
1788052172 24.44° C 100% 1015.4 hPa 0 mm - - -
1788051872 25° C 100% 1015.1 hPa 0 mm - - -
1788051572 25° C 100% 1015 hPa 0 mm - - -
1788051272 25° C 100% 1015 hPa 0 mm - - -
1788050972 25° C 100% 1014.8 hPa 0 mm - - -
1788050672 25° C 100% 1014.9 hPa 0 mm - - -
1788050372 25° C 100% 1014.7 hPa 0 mm - - -
1788050072 25° C 100% 1014.7 hPa 0 mm - - -
1788049772 25° C 100% 1014.6 hPa 0.25 mm - - -
1788049472 24.44° C 100% 1014.6 hPa 0.51 mm - - -
1788049172 24.44° C 100% 1014.8 hPa 1.02 mm - - -
1788048872 25° C 100% 1014.8 hPa 1.52 mm - - -
1788048572 24.44° C 100% 1014.8 hPa 1.78 mm - - -
1788048272 24.44° C 100% 1014.9 hPa 2.03 mm - - -
1788047972 24.44° C 100% 1015.1 hPa 2.54 mm - - -
1788047672 24.44° C 100% 1015.3 hPa 2.54 mm - - -
1788047372 24.44° C 100% 1015.5 hPa 3.56 mm - - -
1788047072 24.44° C 100% 1015.6 hPa 4.57 mm - - -
1788046772 24.44° C 100% 1015.7 hPa 4.57 mm - - -
1788046472 25° C 100% 1015.6 hPa 4.57 mm - - -
1788046172 25° C 100% 1015.6 hPa 4.32 mm - - -
1788045872 25° C 100% 1015.8 hPa 4.06 mm - - -
1788045572 24.44° C 100% 1015.8 hPa 3.56 mm - - -
1788045272 24.44° C 100% 1015.8 hPa 3.05 mm - - -

* Rain latest hour (hover to see other rain measurements)
** Current wind speed in m/s (hover to see current wind gust speed)